Regional Weather Roundup
Issued by NWS

Home | Current Version | Previous Version | Graphics & Text | Print | Product List | Glossary On
Versions: 1 2 3 4 5 6 7 8 9 10 11 12 13 14 15 16 17 18 19 20 21 22 23 24 25 26 27 28 29 30 31 32 33 34 35 36 37 38 39 40 41 42 43 44 45 46 47 48 49 50
000
ASUS43 KMPX 202110
RWRMN
WEATHER ROUNDUP FOR MINNESOTA
NATIONAL WEATHER SERVICE TWIN CITIES/CHANHASSEN MN
400 PM CDT SUN AUG 20 2017


NOTE: "FAIR" INDICATES FEW OR NO CLOUDS BELOW 12,000 FEET WITH NO
SIGNIFICANT WEATHER AND/OR OBSTRUCTIONS TO VISIBILITY. N/A MEANS
CURRENT SKY AND/OR WEATHER CONDITIONS ARE NOT AVAILABLE.

MNZ060>063-068>070-202200-
   Twin Cities Metro

CITY           SKY/WX    TMP DP  RH WIND       PRES   REMARKS
TWIN CITIES    MOSUNNY   86  67  52 SW7       29.93R
ST PAUL        SUNNY     83  69  62 VRB5      29.92S
CRYSTAL        MOSUNNY   82  64  54 W9        29.92R
BLAINE         PTSUNNY   84  64  51 W6        29.93R
LAKEVILLE      PTSUNNY   81  70  69 W3        29.94S
EDEN PRAIRIE   PTSUNNY   83  68  60 W7        29.93R
SOUTH ST PAUL  SUNNY     83  68  59 W3        29.92S
LAKE ELMO      FAIR      82  70  65 W5        29.94S
$$
MNZ001>005-007-008-013>017-022>024-027-028-202200-
   Northwest Minnesota

CITY           SKY/WX    TMP DP  RH WIND       PRES   REMARKS
BEMIDJI        MOSUNNY   73  48  40 W10       29.97S
HALLOCK        SUNNY     79  36  21 NW9G18    29.94S
ROSEAU         PTSUNNY   79  45  29 NW12      29.93S
WARROAD        CLOUDY    75  54  46 W13       29.92F
THIEF RVR FALL PTSUNNY   76  40  27 NW12      29.97S
CROOKSTON      MOSUNNY   75  45  33 N13       29.97S
FOSSTON        MOSUNNY   75  43  31 W6G17     29.98S
DETROIT LAKES  MOSUNNY   70  50  49 NW7       30.01S
MOORHEAD       CLOUDY    73  48  40 NW6       30.00S
PARK RAPIDS    SUNNY     75  50  41 NW6       29.97F
MAHNOMEN       FAIR      73  52  47 W10       29.99S
$$
MNZ006-009>011-018-025>026-202200-
   North Central Minnesota

CITY           SKY/WX    TMP DP  RH WIND       PRES   REMARKS
BAUDETTE       MOSUNNY   75  49  39 NW10      29.92R
FLAG ISLAND      N/A     75  46  35 NW7       29.89F HAZE
INTL FALLS     SUNNY     76  50  40 W10       29.90S
WASKISH        PTSUNNY   75  54  46 W9        29.93S
BIG FORK       CLOUDY    77  50  38 W5        29.92S
LONGVILLE      MOSUNNY   73  55  53 W6        29.97R
GRAND RAPIDS   PTSUNNY   72  57  59 NW9       29.96S
CRANE LAKE     MOSUNNY   73  52  46 W5        29.90F
ORR            CLOUDY    75  46  35 W10       29.89S
COOK           MOSUNNY   73  52  46 NW8       29.92S
WALKER         FAIR      73  53  49 NW7       29.96S
$$
MNZ012-019>021-037-202200-
   Northeast Minnesota

CITY           SKY/WX    TMP DP  RH WIND       PRES   REMARKS
DULUTH         MOSUNNY   76  59  55 NW10      29.91F
ELY            CLOUDY    73  52  46 W12G17    29.89S
HIBBING        CLOUDY    71  54  54 NW8       29.92S
EVELETH        PTSUNNY   73  49  42 NW7       29.93S
DULUTH HARBOR  CLOUDY    79  63  57 NW10      29.89S
TWO HARBORS    MOSUNNY   81  64  57 W8G16     29.88S
SILVER BAY     MOSUNNY   77  59  53 W5        29.87S
GRAND MARAIS     N/A     71  64  78 VRB3      29.81F
G MARAIS ARPRT MOSUNNY   72  57  60 W5        29.88S
$$
MNZ029>031-032-039>041-046>048-054>057-064-202200-
   West Central Minnesota

CITY           SKY/WX    TMP DP  RH WIND       PRES   REMARKS
FERGUS FALLS   CLOUDY    72  57  60 NW3       29.99S
WHEATON        MOSUNNY   73  54  49 N3        30.01F
MORRIS         MOSUNNY   73  63  68 W8        29.99F
ELBOW LAKE     FAIR      71  58  63 W5        30.01S HAZE
WADENA         SUNNY     73  55  53 MISG      29.99R
GLENWOOD       PTSUNNY   73  57  56 NW7       30.01F
APPLETON       CLOUDY    72  59  64 NW9       30.00R
BENSON         CLOUDY    72  61  68 N9        30.00F
ORTONVILLE     CLOUDY    70  55  60 MISG      30.00F
MADISON        CLOUDY    73  63  68 N13       29.99S
WILLMAR        FAIR      73  66  78 NW9       30.00S
$$
MNZ033>034-036-042>043-049>051-058-059-202200-
   Central Minnesota

CITY           SKY/WX    TMP DP  RH WIND       PRES   REMARKS
ST CLOUD       CLOUDY    77  66  68 NW8       29.95F
SAUK CENTRE    FAIR      73  60  63 NW3       30.00R
PAYNESVILLE    CLOUDY    73  64  73 N6        29.98R
AITKIN         CLOUDY    73  57  56 W7        29.95S
PINE RIVER     MOSUNNY   72  55  56 NW6       30.00F
BRAINERD       CLOUDY    73  57  57 W6        29.96F
STAPLES        SUNNY     75  54  46 CALM      29.98F
LONG PRAIRIE   FAIR      72  59  64 SW5       30.00S
LITTLE FALLS   PTSUNNY   73  59  60 N3        29.98R
LITCHFIELD     SUNNY     79  66  65 N8        29.97F
BUFFALO        SUNNY     81  65  57 W6        29.96S
MAPLE LAKE     MOSUNNY   81  67  62 NW6       29.97S
HUTCHINSON     SUNNY     81  66  60 N3        29.97S
$$
MNZ037-044-045-052-053-202200-
   East Central Minnesota

CITY           SKY/WX    TMP DP  RH WIND       PRES   REMARKS
PRINCETON      PTSUNNY   79  66  65 NW8       29.96S
MORA           CLOUDY    73  61  64 NW8       29.96R
CAMBRIDGE      MOSUNNY   81  64  57 N6        29.94S
RUSH CITY      CLOUDY    76  64  67 NW5       29.94S
MOOSE LAKE     CLOUDY    77  59  53 W6        29.92S
HINCKLEY       FAIR      77  64  65 NW5       29.94R
CLOQUET        CLOUDY    75  54  46 W8        29.92S
MCGREGOR       CLOUDY    73  57  56 NW6       29.95S
$$
MNZ071>073-080-081-089-090-097-098-202200-
   Southwest Minnesota

CITY           SKY/WX    TMP DP  RH WIND       PRES   REMARKS
MONTEVIDEO     PTSUNNY   72  63  73 N7        30.00R
GRANITE FALLS  MOSUNNY   77  66  69 N6        29.99S
CANBY          MOSUNNY   74  60  62 NW5       30.02R
MARSHALL       MOSUNNY   74  64  71 N8        29.99R
REDWOOD FALLS  SUNNY     79  66  64 VRB3      29.96F
OLIVIA         CLOUDY    77  63  61 N7        29.97R
PIPESTONE      MOSUNNY   75  61  60 E7        29.99F
WINDOM         SUNNY     81  64  57 N8        29.98S
WORTHINGTON    PTSUNNY   80  69  69 N8        29.99S
JACKSON        MOSUNNY   81  66  61 CALM      29.98S
TRACY          PTSUNNY   76  64  67 N5        29.99S
SLAYTON        MOSUNNY   76  62  62 N10       30.01S
$$
MNZ065>067-074>077-082>085-091>093-202200-
   South Central Minnesota

CITY           SKY/WX    TMP DP  RH WIND       PRES   REMARKS
MANKATO        MOSUNNY   82  70  66 NW8       29.95S
NEW ULM        MOSUNNY   81  68  65 NW10      29.96R
ST JAMES       PTSUNNY   81  70  69 NW5       29.98R
FAIRMONT       SUNNY     82  68  62 MISG      29.96S
GLENCOE        SUNNY     82  72  73 NW3       29.95S
FARIBAULT      MOSUNNY   82  70  65 SW3       29.95S
OWATONNA       SUNNY     82  70  65 SW7       29.95S
WASECA         SUNNY     79  68  69 SW6       29.97S
ALBERT LEA     SUNNY     86  68  54 SW5       29.96S
$$
MNZ078>079-086>088-094>096-202200-
   Southeast Minnesota

CITY           SKY/WX    TMP DP  RH WIND       PRES   REMARKS
ROCHESTER      PTSUNNY   80  67  64 W9        29.96F
RED WING       MOSUNNY   86  63  45 W9        29.92S
STANTON        MOSUNNY   83  69  62 W6        29.93S
DODGE CENTER   CLOUDY    81  64  57 SW6       29.97S
WINONA         PTSUNNY   82  63  51 W5        29.94S
AUSTIN         PTSUNNY   82  63  51 W9        29.95F
PRESTON        SUNNY     82  62  51 W3        29.97S
$$
ABBREVIATIONS USED IN REMARKS
   TC - TEMPERATURES IN CELSIUS
  WCI - WIND CHILL INDEX
   HX - HEAT INDEX
  VSB - VISIBILITY
$$



USA.gov is the U.S. government's official web portal to all federal, state and local government web resources and services.